Genoa, Italy

4:22 PM CEST on June 27, 2017 (GMT +0200)
Sestri

Weather History for LIMJ - May, 2014

Change the Weather History Date:

Sunday, May 4, 2014

  Actual Average Record
Temperature  
Mean Temperature 66 °F -  
Max Temperature 75 °F 70 °F 82 °F (2003)
Min Temperature 58 °F 58 °F 53 °F (2002)
Cooling Degree Days 2    
Growing Degree Days 16 (Base 50)    
Moisture  
Dew Point 45 °F    
Average Humidity 51    
Maximum Humidity 77    
Minimum Humidity 13    
Precipitation  
Precipitation 0.00 in 0.10 in - ()
Sea Level Pressure  
Sea Level Pressure 29.84 in    
Wind  
Wind Speed 6 mph ()    
Max Wind Speed 15 mph    
Max Gust Speed -    
Visibility 6.2 miles    
Events      
Averages and records for this station are not official NWS values.
T = Trace of Precipitation, MM = Missing Value Source: Averaged Metar Reports

Daily Weather History Graph

Daily Weather History Graph

Search for Another Location

Airport or City:

Trip Planner

Search our weather history database for the weather conditions in past years. The results will help you decide how hot, cold, wet, or windy it might be!

Date:

Astronomy

May. 04, 2014 Rise Set
Actual Time 6:11 AM CEST 8:32 PM CEST
Civil Twilight 5:39 AM CEST 9:04 PM CEST
Nautical Twilight 4:59 AM CEST 9:44 PM CEST
Astronomical Twilight 4:14 AM CEST 10:30 PM CEST
Moon 10:19 AM CEST (5/4) 12:27 AM CEST (5/4)
Length of Visible Light 15h 25m
Length of Day
14h 20m
Waxing Crescent, 25% of the Moon is Illuminated
May 4
Waxing Crescent
May 7
First Quarter
May 14
Full
May 21
Last Quarter
May 28
New

Hourly Weather History & Observations

Time (CEST) Temp. Dew Point Humidity Pressure Visibility Wind Dir Wind Speed Gust Speed Precip Events Conditions
12:20 AM 62.6 °F 46.4 °F 55% 29.77 in 6.2 mi SE 5.8 mph - N/A   Mostly Cloudy
12:50 AM 62.6 °F 46.4 °F 55% 29.80 in 6.2 mi Variable 1.2 mph - N/A   Mostly Cloudy
1:20 AM 62.6 °F 53.6 °F 72% 29.80 in 6.2 mi West 11.5 mph - N/A   Mostly Cloudy
1:50 AM 62.6 °F 46.4 °F 55% 29.80 in 6.2 mi West 10.4 mph - N/A   Mostly Cloudy
2:00 AM 62 °F 47 °F 47% 29.81 in 25 mi NNE 8.1 mph - -   Partly Cloudy
2:20 AM 62.6 °F 44.6 °F 52% 29.80 in 6.2 mi NE 8.1 mph - N/A   Mostly Cloudy
2:50 AM 62.6 °F 46.4 °F 55% 29.80 in 6.2 mi NNE 8.1 mph - N/A   Mostly Cloudy
3:20 AM 60.8 °F 48.2 °F 63% 29.80 in 6.2 mi NE 9.2 mph - N/A   Mostly Cloudy
3:50 AM 60.8 °F 48.2 °F 63% 29.80 in 6.2 mi ENE 8.1 mph - N/A   Mostly Cloudy
4:20 AM 60.8 °F 48.2 °F 63% 29.80 in 6.2 mi ENE 6.9 mph - N/A   Mostly Cloudy
4:50 AM 59.0 °F 48.2 °F 67% 29.80 in 6.2 mi ENE 3.5 mph - N/A   Mostly Cloudy
5:00 AM 60 °F 45 °F 48% 29.81 in 25 mi North 4.6 mph - -   Partly Cloudy
5:50 AM 59.0 °F 48.2 °F 67% 29.80 in 6.2 mi ENE 6.9 mph - N/A   Mostly Cloudy
6:20 AM 59.0 °F 46.4 °F 63% 29.80 in 6.2 mi NE 4.6 mph - N/A   Scattered Clouds
6:50 AM 59.0 °F 44.6 °F 59% 29.83 in 6.2 mi ENE 6.9 mph - N/A   Scattered Clouds
7:20 AM 59.0 °F 44.6 °F 59% 29.83 in 6.2 mi NE 5.8 mph - N/A   Partly Cloudy
7:50 AM 59.0 °F 44.6 °F 59% 29.83 in 6.2 mi ENE 8.1 mph - N/A   Partly Cloudy
8:00 AM 60 °F 44 °F 44% 29.85 in 34 mi NE 9.2 mph - -   Partly Cloudy
8:20 AM 60.8 °F 42.8 °F 52% 29.83 in 6.2 mi NE 9.2 mph - N/A   Partly Cloudy
8:50 AM 60.8 °F 42.8 °F 52% 29.83 in 6.2 mi NE 8.1 mph - N/A   Partly Cloudy
9:20 AM 62.6 °F 42.8 °F 48% 29.83 in 6.2 mi Variable 4.6 mph - N/A   Partly Cloudy
9:50 AM 66.2 °F 30.2 °F 26% 29.83 in 6.2 mi NNW 6.9 mph - N/A   Partly Cloudy
10:20 AM 68.0 °F 28.4 °F 23% 29.83 in 6.2 mi North 8.1 mph - N/A   Partly Cloudy
10:50 AM 68.0 °F 32.0 °F 26% 29.83 in - WNW 5.8 mph - N/A   Clear
11:00 AM 69 °F 29 °F 13% 29.85 in 37 mi WNW 5.8 mph - -   Scattered Clouds
11:20 AM 71.6 °F 28.4 °F 20% 29.83 in - North 6.9 mph - N/A   Clear
11:50 AM 71.6 °F 28.4 °F 20% 29.83 in - North 8.1 mph - N/A   Clear
12:20 PM 71.6 °F 28.4 °F 20% 29.83 in - North 6.9 mph - N/A   Clear
12:50 PM 73.4 °F 30.2 °F 20% 29.83 in - North 5.8 mph - N/A   Clear
1:20 PM 73.4 °F 26.6 °F 18% 29.83 in - NNW 5.8 mph - N/A   Clear
1:50 PM 73.4 °F 28.4 °F 19% 29.83 in - Variable 6.9 mph - N/A   Clear
2:00 PM 75 °F 34 °F 13% 29.83 in 37 mi NW 3.5 mph - -  
2:20 PM 73.4 °F 39.2 °F 29% 29.83 in - West 11.5 mph - N/A   Clear
2:50 PM 71.6 °F 42.8 °F 35% 29.80 in - WSW 9.2 mph - N/A   Clear
3:20 PM 69.8 °F 46.4 °F 43% 29.80 in 6.2 mi SW 10.4 mph - N/A   Partly Cloudy
3:50 PM 68.0 °F 55.4 °F 64% 29.83 in 6.2 mi SW 15.0 mph - N/A   Partly Cloudy
4:20 PM 66.2 °F 51.8 °F 60% 29.83 in 6.2 mi West 8.1 mph - N/A   Partly Cloudy
4:50 PM 68.0 °F 53.6 °F 60% 29.83 in 6.2 mi West 6.9 mph - N/A   Partly Cloudy
5:00 PM 67 °F 52 °F 47% 29.85 in 25 mi West 5.8 mph - -   Scattered Clouds
5:20 PM 66.2 °F 53.6 °F 64% 29.86 in 6.2 mi WSW 5.8 mph - N/A   Partly Cloudy
5:50 PM 66.2 °F 51.8 °F 60% 29.86 in 6.2 mi West 4.6 mph - N/A   Partly Cloudy
6:20 PM 66.2 °F 50.0 °F 56% 29.86 in 6.2 mi WSW 3.5 mph - N/A   Partly Cloudy
6:50 PM 66.2 °F 51.8 °F 60% 29.86 in - SW 3.5 mph - N/A   Clear
7:20 PM 64.4 °F 53.6 °F 68% 29.86 in 6.2 mi SE 4.6 mph - N/A   Partly Cloudy
7:50 PM 62.6 °F 51.8 °F 68% 29.89 in 6.2 mi SE 4.6 mph - N/A   Partly Cloudy
8:00 PM 62 °F 53 °F 65% 29.90 in 25 mi SE 4.6 mph - -   Scattered Clouds
8:20 PM 60.8 °F 51.8 °F 72% 29.89 in - ESE 4.6 mph - N/A   Clear
8:50 PM 60.8 °F 53.6 °F 77% 29.89 in - SE 2.3 mph - N/A   Clear
9:20 PM 60.8 °F 53.6 °F 77% 29.92 in - Variable 1.2 mph - N/A   Clear
9:50 PM 60.8 °F 50.0 °F 68% 29.92 in - NE 4.6 mph - N/A   Clear
10:20 PM 60.8 °F 48.2 °F 63% 29.92 in - ENE 4.6 mph - N/A   Clear
10:50 PM 60.8 °F 50.0 °F 68% 29.95 in - NNE 3.5 mph - N/A   Clear
11:00 PM 60 °F 49 °F 56% 29.96 in 37 mi NNE 4.6 mph - -  
11:20 PM 59.0 °F 48.2 °F 67% 29.95 in - NNE 5.8 mph - N/A   Clear
11:50 PM 59.0 °F 48.2 °F 67% 29.95 in - NNE 5.8 mph - N/A   Clear